Lid_Strength_Index
1 -0 -1 -0 1 1 1 2 2 3 3 3 3 2 3 3 3 5 9 7 4 1 2 5 5 4 4 4 4 4 8 9 9 9 8 5 6 5 6 7 7 7 7 5 5
2 2 -0 -0 0 1 1 1 2 2 3 3 2 2 3 3 6 8 6 3 1 0 5 6 6 5 5 5 4 5 8 8 6 6 7 6 6 6 6 6 7 7 6 5 5
2 2 2 -1 -0 1 1 1 2 2 2 2 2 2 3 3 8 10 4 2 1 2 4 5 5 5 6 5 5 6 8 6 6 5 5 6 6 5 6 6 5 6 7 6 6
1 2 3 2 -0 1 1 1 1 2 2 2 2 2 3 4 12 7 1 1 2 4 5 6 5 6 6 7 6 7 8 7 7 6 5 6 5 6 5 5 5 4 5 6 6
1 2 2 2 0 1 1 1 1 2 2 2 2 2 4 8 9 4 2 3 5 6 6 6 7 6 6 5 6 7 8 7 7 6 5 5 6 6 5 5 5 5 6 6 6
0 2 2 1 1 1 0 1 1 2 2 2 2 2 6 11 6 3 5 6 7 7 7 5 6 5 5 6 6 7 7 7 7 7 7 6 6 7 6 6 6 6 6 6 6
0 0 0 1 0 0 1 1 1 2 1 1 1 4 7 9 5 4 5 7 6 7 8 5 4 5 4 6 7 7 8 8 7 7 8 8 8 7 6 6 6 6 6 6 6
0 -0 -1 -1 1 0 0 1 1 1 1 1 2 5 10 6 5 6 5 7 6 6 7 6 4 5 5 6 7 7 7 10 7 8 9 9 10 7 7 7 7 7 6 6 6
0 -1 -1 -1 -0 1 0 1 1 1 1 1 5 6 11 6 7 6 5 8 7 7 7 7 6 6 6 7 9 8 10 9 9 7 8 8 9 9 8 7 7 7 6 7 7
1 -1 -1 -1 -1 -0 1 1 1 1 2 3 5 9 9 10 7 7 6 6 8 7 8 8 8 9 8 9 12 11 10 9 9 9 9 8 8 7 9 8 8 7 6 6 6
1 -0 -0 -1 -1 -0 0 3 5 7 5 9 10 10 10 8 7 8 6 7 7 9 12 9 12 13 11 9 8 8 9 9 8 10 10 9 8 7 6 8 8 7 7 6 6
1 0 0 -1 -1 -1 1 5 6 6 9 6 8 9 8 7 10 9 6 9 10 12 10 12 14 11 10 9 9 9 10 10 11 11 11 9 10 8 8 7 7 7 7 7 6
1 1 1 0 -0 0 2 4 4 5 10 9 7 9 9 8 10 10 8 9 11 12 11 13 12 11 11 11 11 11 11 11 12 12 11 12 12 10 9 8 7 7 6 7 7
1 1 0 0 2 1 3 4 3 4 12 11 10 8 8 9 11 8 7 9 10 12 11 12 11 12 12 12 11 14 10 11 12 13 15 13 16 11 9 10 9 8 7 7 7
1 1 1 -0 3 4 3 2 3 4 20 9 11 7 8 10 11 10 8 9 12 12 11 13 13 13 13 12 11 13 11 12 13 14 14 14 16 13 12 11 10 9 8 7 6
0 1 1 2 2 2 2 1 4 13 19 12 10 11 12 11 11 10 10 9 9 11 11 12 11 11 12 12 11 12 13 13 13 14 17 15 15 14 12 12 10 9 9 8 7
0 1 1 1 3 2 0 3 13 17 10 13 12 10 12 13 12 11 12 13 13 15 15 14 13 12 12 13 12 12 13 16 17 17 19 17 16 14 11 11 11 10 9 8 7
0 1 2 1 -0 1 2 9 17 14 12 8 10 11 13 12 13 12 13 14 12 13 14 16 17 13 12 12 14 13 13 15 19 19 17 18 18 15 11 10 11 10 10 9 9
0 2 3 1 1 1 7 14 14 12 9 10 10 12 12 12 12 13 13 13 12 12 15 16 15 12 12 12 11 13 15 12 16 19 18 16 15 12 11 12 11 11 11 10 10
4 5 5 1 1 3 10 13 12 7 7 8 12 10 14 13 13 13 13 12 12 11 11 13 16 14 13 12 12 12 11 16 15 18 19 16 16 15 12 12 11 12 11 10 10
5 8 4 1 2 8 13 12 9 7 6 9 9 10 11 12 13 13 13 12 11 11 11 12 14 16 14 15 14 14 14 13 14 15 17 18 15 11 11 10 10 10 10 10 11
6 11 3 2 10 10 11 10 7 7 7 8 8 8 10 10 12 12 13 11 10 10 13 12 13 17 16 13 12 12 13 13 15 17 15 16 15 12 12 11 11 10 10 9 10
9 10 4 2 12 12 10 10 8 8 8 9 9 8 8 10 12 10 10 8 10 11 12 12 13 16 17 15 14 15 13 13 12 13 16 17 15 12 12 12 11 10 9 9 10
10 12 10 8 6 9 11 11 11 7 7 7 8 8 9 10 9 10 10 9 8 9 9 11 13 15 17 15 14 17 15 14 14 15 16 16 14 12 12 11 11 11 10 9 10
9 10 9 13 11 9 9 10 11 11 7 7 10 9 10 13 11 11 9 9 9 9 9 10 15 14 14 13 13 14 15 14 16 14 15 14 14 12 10 9 9 10 10 10 10
10 10 8 10 9 10 10 11 11 10 9 10 11 9 9 12 10 12 10 10 10 9 10 10 14 13 16 13 13 15 14 14 14 14 14 14 14 10 9 10 10 10 11 11 10
8 5 6 9 10 11 10 11 11 9 8 7 8 8 10 9 7 7 7 7 7 9 10 11 13 14 17 13 14 17 16 14 14 13 13 15 13 11 11 11 11 10 10 11 10